Regional Weather Roundup
Issued by NWS Wakefield, VA

Home | Current Version | Previous Version | Graphics & Text | Print | Product List | Glossary On
Versions: 1 2 3 4 5 6 7 8 9 10 11 12 13 14 15 16 17 18 19 20 21 22 23 24 25 26 27 28 29 30 31 32 33 34 35 36 37 38 39 40 41 42 43 44 45 46 47 48 49 50
000
ASUS41 KAKQ 192010
RWRAKQ

REGIONAL WEATHER ROUNDUP
NATIONAL WEATHER SERVICE WAKEFIELD VA
400 PM EDT SUN OCT 19 2014

Note: "fair" indicates few or no clouds below 12,000 feet with no
significant weather and/or obstructions to visibility. * = Denotes
station may not report precipitation (e.g., rain,snow,etc.),
thunder or fog.

VAZ042-051-052>054-056-192100-
NORTHERN VIRGINIA

CITY           SKY/WX    TMP DP  RH WIND       PRES   REMARKS
WASH NATIONAL  MOSUNNY   62  29  28 NW14G24   30.05S
DULLES         MOSUNNY   58  32  37 W15G23    30.05S
FORT BELVOIR   SUNNY     60  30  32 NW12      30.05S
QUANTICO       SUNNY     61  31  32 NW15      30.06R
FREDERICKSBRG* SUNNY     63  33  33 NW9G16    30.04S
STAFFORD*      SUNNY     60  29  31 NW15      30.09R
WARRENTON      SUNNY     62  39  42 NW14      30.05R
CULPEPER*      SUNNY     63  28  27 N8        30.06R
MANASSAS*      SUNNY     61  34  36 NW15      30.05S
LEESBURG*      SUNNY     59  36  41 NW17G23   30.05S
WINCHESTER     SUNNY     59  23  25 NW14      30.06S
FRONT ROYAL*   CLEAR     59  32  36 NW5       30.05S
LURAY*         CLEAR     63  32  31 NW13      30.06S
$$

VAZ048-049-060>072-079>083-192100-
CENTRAL AND SOUTH CENTRAL VIRGINIA...AND NORTH CENTRAL NORTH CAROLINA

CITY           SKY/WX    TMP DP  RH WIND       PRES   REMARKS
RICHMOND       MOSUNNY   64  28  25 NW15      30.04S
CHESTERFIELD*  CLEAR    N/A N/A N/A NW10      30.05S
PETERSBURG*    SUNNY     63  28  26 NW12G17   30.05S
HANOVER        SUNNY     62  29  28 W10G20    30.06S
TAPPAHANNOCK*  SUNNY     62  23  22 W10G17    30.04S
CHARLOTTSVILLE SUNNY     63  32  31 VRB3      30.05S
ORANGE*        SUNNY     63  30  29 W9        30.06S
LOUISA*        SUNNY     64  34  32 N8        30.04S
FARMVILLE*     SUNNY     64  36  34 W3        30.03S
CREWE*         CLEAR     64  37  37 N3        30.04F
FORT PICKETT*  CLEAR     63  37  37 NW10      30.05S
LUNENBURG*     CLEAR     63  39  41 NW6       30.04F
SOUTH HILL*    SUNNY     64  37  36 NW3       30.10S
LAWRENCEVILLE* CLEAR     63  36  36 N9        30.05R
ROANOKE RAPIDS CLEAR     63  41  45 W7        30.05S
RALEIGH        MOSUNNY   65  38  36 VRB6      30.08S
$$

VAZ088>098-192100-
SOUTHEAST VIRGINIA

CITY           SKY/WX    TMP DP  RH WIND       PRES   REMARKS
NORFOLK        SUNNY     62  32  32 NW10      30.02S
VIRGINIA BEACH MOSUNNY   63  35  35 NW15G24   30.01S
NORFOLK NAVAL  SUNNY     63  33  32 NW14      30.04S
WEST POINT*    SUNNY     64  25  22 NW12G21   30.05S
NEWPORT NEWS   SUNNY     64  34  32 NW8       30.03S
LANGLEY AFB    SUNNY     62  34  35 NW13      30.03S
FORT EUSTIS    SUNNY     62  36  38 NW12      30.02S
WILLIAMSBURG*  SUNNY     66  36  32 NW8       30.04S
HR EXEC AP*    CLEAR     63  36  36 NW6       30.05S
FRANKLIN*      SUNNY     64  32  29 NW8G17    30.04S
WAKEFIELD      SUNNY     64  32  30 W8        30.04S
$$

VAZ020-022-025-037-045-192100-
WEST CENTRAL AND SOUTHWEST VIRGINIA

CITY           SKY/WX    TMP DP  RH WIND       PRES   REMARKS
STAUNTON*      SUNNY     62  26  25 NW10      30.08R
HOT SPRINGS VA SUNNY     49  28  44 W17G24    30.06S
LYNCHBURG      SUNNY     62  33  33 VRB5      30.07F
DANVILLE       SUNNY     66  37  34 N8        30.07F
SOUTH BOSTON*  NOT AVBL
MARTINSVILLE   SUNNY     66  34  29 NW8       30.10S
ROANOKE        MOSUNNY   62  34  35 NW12      30.09F
BLACKSBURG     SUNNY     57  39  51 W8        30.11F
DUBLIN*        SUNNY     58  37  45 N6        30.12F
MARION*        SUNNY     57  36  45 W12       30.14F
HILLSVILLE*    SUNNY     55  35  47 N12       30.10S
RICHLANDS*     CLEAR     56  37  49 CALM      30.14F
WISE*          SUNNY     55  34  44 CALM      30.16S
ABINGDON*      SUNNY     59  36  41 CALM      30.13F
$$

MDZ021>025-VAZ099-100-192100-
SOUTHERN MARYLAND AND THE DELMARVA PENINSULA

CITY           SKY/WX    TMP DP  RH WIND       PRES   REMARKS
PATUXENT RIVER SUNNY     59  29  31 NW16      30.02S
BAY BRIDGE APT   N/A     57  30  35 NW17      30.02R
LEONARDTOWN    SUNNY     59  28  31 W12G17    30.04S
DOVER          SUNNY     56  30  37 NW18G30   29.97S
GEORGETOWN     SUNNY     57  30  35 NW10G20   30.00R
EASTON         SUNNY     59  36  41 NW16G22   30.05S
CAMBRIDGE      SUNNY     59  32  36 NW15G21   30.02R
SALISBURY      SUNNY     60  33  36 NW17G23   30.00S
OCEAN CITY     SUNNY     57  32  38 NW16G25   29.98S
WALLOPS ISLAND SUNNY     58  34  40 NW15G24   30.00S
ACCOMACK*      SUNNY     57  32  38 NW13G25   30.02S
$$

NCZ012>017-030>032-192100-
EASTERN NORTH CAROLINA

CITY           SKY/WX    TMP DP  RH WIND       PRES   REMARKS
ELIZABETH CITY SUNNY     65  36  34 NW15G22   30.02S
AHOSKIE*       SUNNY     62  38  41 NW5       30.05R
EDENTON*       SUNNY     65  38  37 NW9       30.03S
CURRITUCK*     SUNNY     63  33  31 NW10G16   30.03S
KILL DEVIL HLS SUNNY     63  39  41 NW7G17    30.01S
MANTEO         SUNNY     62  40  44 NW8       30.02S
CAPE HATTERAS  SUNNY     64  43  46 NW8       30.02S
TARBORO*       CLEAR     65  41  40 W9G16     30.07R
GOLDSBORO      SUNNY     66  44  45 NW8       30.05R
WASHINGTON     SUNNY     64  41  42 NW7       30.05S
GREENVILLE     SUNNY     64  41  42 NW7       30.07R
NEW BERN       SUNNY     67  40  37 NW9       30.06R
WILMINGTON     SUNNY     68  43  40 N9        30.05S
$$

VAZ048-192100-
ELSEWHERE

CITY           SKY/WX    TMP DP  RH WIND       PRES   REMARKS
HARRISBURG PA  MOSUNNY   54  30  40 NW15      30.02S
BALTIMORE      MOSUNNY   58  28  32 NW12      30.02S
ANNAPOLIS      SUNNY     58  30  34 NW9G20    30.02R
ANDREWS AFB    SUNNY     58  31  35 NW16      30.03R
WILMINGTON DE  SUNNY     55  29  36 NW18G24   30.00S
PHILADELPHIA   MOSUNNY   55  27  34 N21G28    29.99R
WILDWOOD NJ*   SUNNY     54  30  40 NW15G24   29.99R
ATLANTIC CITY  SUNNY     55  30  38 W18G26    29.95R
HENDERSON NC   SUNNY     63  36  37 NW7       30.06S
GREENSBORO     MOSUNNY   66  38  35 CALM      30.07S
ROCKY MOUNT    SUNNY     65  39  38 NW9       30.06R
FAYETTEVILLE   SUNNY     68  40  35 N8        30.07R
CHARLOTTE      MOSUNNY   69  39  33 CALM      30.08F
$$

VAZ100-192100-
MARINE

STATION/POSITION TIME  TEMP    WIND        PRES    WAVE   SWELL
                       AIR SEA DIR/SP/G            HT/PER HT/PER
                 (UTC) (F)     (DEG/KT/KT) (MB)    (FT/S) (FT/S)
44066 TX TWR #4  2000   55 66  310/ 21/ 27 1011.0R   9/ 7   3/12
CAPE MAY NJ      2000   54 67  320/ 18/ 25 1014.4R
LEWES DE         2000   55 63  330/ 20/ 25 1014.9R
15NM E FENWICK I 2000   56 66  300/ 19/ 23 1014.3R   4/ 5   2/13
OCEAN-CITY-INLET 2000   57 66  340/ 18/ 23 1014.6R
WACHAPREAGUE VA  2000   57 63  300/  6/ 15 1016.5R
THOMAS POINT MD  2000   56 64  310/ 15/ 18 1017.5R
GOOSES REEF MD   2000   57     320/ 17/ 21 1016.9S
COVE POINT MD    2000   56     340/ 19/ 25 1016.4S
SOLOMONS ISLAND  2000      67                N/A
BISHOPS HEAD MD  2000   56 57  310/ 18/ 22 1016.2R
PINEY POINT MD   2000          340/ 21/ 24   N/A
POTOMAC MD       2000   58     320/ 17/ 23 1016.2R
CAMBRIDGE MD     2000   56 64  300/ 11/ 17 1016.1R
LEWISETTA VA     2000   57 64  340/ 13/ 20 1016.6S
RAPPAHANNOCK LGT 2000          320/ 19/ 23 1016.7F
STINGRAY PT      2000   59     320/ 17/ 21 1017.0S
YORK RVR RNG VA  2000   60     330/ 18/ 22 1016.2S
YORKTOWN VA      2000   60 68  320/ 18/ 20 1016.4S
JAMESTOWN VA     2000   59     360/ 12/ 16   N/A
DOMINION TERM VA 2000   60     320/ 15/ 19 1016.7F
KIPTOPEKE VA     2000      69  340/ 16/ 19   N/A
CHES BAY BRIDGE  2000   59 68  310/ 18/ 22 1016.3F
CHESAPEAKE LGHT  1900   57     320/ 22/ 24 1016.9S
WILLOUBY STN VA  2000   60     330/ 14/ 16 1015.4S
S CRANEY ISL VA  2000          290/ 11/ 17 1016.5F
CAPE HENRY BUOY  2000      70                N/A     5/ 6   2/12
1ST LANDING BUOY 2000   60     320/ 17/ 25 1016.5S
CAPE CHARLES BUO 2000      69                N/A     4/ 4   2/11
64NM E OF VA BCH 2000   59 70  320/ 19/ 25 1015.4R   8/ 6   2/12
DUCK PIER NC     2000   61 70  350/ 12/ 19 1015.5R
44100 DUCK FRF   2000      71                N/A     5/ 6   2/17
44056 DUCK FRF   2000                        N/A     5/ 7   2/11
OREGON INLET NC  2000   61 69  310/ 12/ 19 1016.3S
HATTERAS NC      2000   62 68  340/ 13/ 16 1016.9R
DIAMOND SHLS NC  2000   62     330/ 16/ 19 1016.4R   5/ 4   2/12
CAPE LOOKOUT NC  1900   63     330/ 10/ 13 1017.0R
$$



USA.gov is the U.S. government's official web portal to all federal, state and local government web resources and services.